Time,TemperatureF,DewpointF,PressureIn,WindDirection,WindDirectionDegrees,WindSpeedMPH,WindSpeedGustMPH,Humidity,HourlyPrecipIn,Conditions,Clouds,dailyrainin,SoftwareType,DateUTC
2013-04-10 00:02:00,23.0,13.0,-100.00,SW,220,5.0,6.0,66,-99.99,,,-99.99,,2013-04-10 06:02:00,
2013-04-10 00:12:00,20.0,12.0,-100.00,SW,235,4.0,8.0,69,-99.99,,,-99.99,,2013-04-10 06:12:00,
2013-04-10 00:22:00,20.0,12.0,-100.00,SW,235,4.0,8.0,69,-99.99,,,-99.99,,2013-04-10 06:22:00,
2013-04-10 00:32:00,20.0,12.0,-100.00,SW,235,4.0,8.0,69,-99.99,,,-99.99,,2013-04-10 06:32:00,
2013-04-10 00:42:00,20.0,12.0,-100.00,SW,235,4.0,8.0,69,-99.99,,,-99.99,,2013-04-10 06:42:00,
2013-04-10 00:52:00,21.0,12.0,-100.00,SSW,210,4.0,6.0,68,-99.99,,,-99.99,,2013-04-10 06:52:00,
2013-04-10 01:02:00,21.0,12.0,-100.00,SSW,210,4.0,6.0,68,-99.99,,,-99.99,,2013-04-10 07:02:00,
2013-04-10 01:12:00,20.0,12.0,-100.00,SW,220,1.0,3.0,70,-99.99,,,-99.99,,2013-04-10 07:12:00,
2013-04-10 01:22:00,20.0,12.0,-100.00,SW,220,1.0,3.0,70,-99.99,,,-99.99,,2013-04-10 07:22:00,
2013-04-10 01:32:00,20.0,12.0,-100.00,SW,220,1.0,3.0,70,-99.99,,,-99.99,,2013-04-10 07:32:00,
2013-04-10 01:42:00,20.0,12.0,-100.00,SW,220,1.0,3.0,70,-99.99,,,-99.99,,2013-04-10 07:42:00,
2013-04-10 01:52:00,21.0,13.0,-100.00,SW,215,3.0,6.0,70,-99.99,,,-99.99,,2013-04-10 07:52:00,
2013-04-10 02:02:00,21.0,13.0,-100.00,SW,215,3.0,6.0,70,-99.99,,,-99.99,,2013-04-10 08:02:00,
2013-04-10 02:12:00,20.0,12.0,-100.00,WSW,255,3.0,5.0,69,-99.99,,,-99.99,,2013-04-10 08:12:00,
2013-04-10 02:22:00,20.0,12.0,-100.00,WSW,255,3.0,5.0,69,-99.99,,,-99.99,,2013-04-10 08:22:00,
2013-04-10 02:32:00,20.0,12.0,-100.00,WSW,255,3.0,5.0,69,-99.99,,,-99.99,,2013-04-10 08:32:00,
2013-04-10 02:42:00,20.0,12.0,-100.00,WSW,255,3.0,5.0,69,-99.99,,,-99.99,,2013-04-10 08:42:00,
2013-04-10 02:52:00,22.0,11.0,-100.00,WSW,240,6.0,8.0,64,-99.99,,,-99.99,,2013-04-10 08:52:00,
2013-04-10 03:02:00,22.0,11.0,-100.00,WSW,240,6.0,8.0,64,-99.99,,,-99.99,,2013-04-10 09:02:00,
2013-04-10 03:12:00,21.0,10.0,-100.00,SW,220,6.0,8.0,63,-99.99,,,-99.99,,2013-04-10 09:12:00,
2013-04-10 03:22:00,21.0,10.0,-100.00,SW,220,6.0,8.0,63,-99.99,,,-99.99,,2013-04-10 09:22:00,
2013-04-10 03:32:00,21.0,10.0,-100.00,SW,220,6.0,8.0,63,-99.99,,,-99.99,,2013-04-10 09:32:00,
2013-04-10 03:42:00,21.0,10.0,-100.00,SW,220,6.0,8.0,63,-99.99,,,-99.99,,2013-04-10 09:42:00,
2013-04-10 03:52:00,21.0,11.0,-100.00,WNW,285,4.0,8.0,66,-99.99,,,-99.99,,2013-04-10 09:52:00,
2013-04-10 04:03:00,21.0,11.0,-100.00,WNW,285,4.0,8.0,66,-99.99,,,-99.99,,2013-04-10 10:03:00,
2013-04-10 04:12:00,20.0,12.0,-100.00,SW,235,4.0,6.0,69,-99.99,,,-99.99,,2013-04-10 10:12:00,
2013-04-10 04:23:00,20.0,12.0,-100.00,SW,235,4.0,6.0,69,-99.99,,,-99.99,,2013-04-10 10:23:00,
2013-04-10 04:33:00,20.0,12.0,-100.00,SW,235,4.0,6.0,69,-99.99,,,-99.99,,2013-04-10 10:33:00,
2013-04-10 04:42:00,20.0,12.0,-100.00,SW,235,4.0,6.0,69,-99.99,,,-99.99,,2013-04-10 10:42:00,
2013-04-10 04:52:00,20.0,11.0,-100.00,West,260,3.0,6.0,69,-99.99,,,-99.99,,2013-04-10 10:52:00,
2013-04-10 05:02:00,20.0,11.0,-100.00,West,260,3.0,6.0,69,-99.99,,,-99.99,,2013-04-10 11:02:00,
2013-04-10 05:12:00,20.0,11.0,-100.00,WSW,240,8.0,11.0,69,-99.99,,,-99.99,,2013-04-10 11:12:00,
2013-04-10 05:22:00,20.0,11.0,-100.00,WSW,240,8.0,11.0,69,-99.99,,,-99.99,,2013-04-10 11:22:00,
2013-04-10 05:32:00,20.0,11.0,-100.00,WSW,240,8.0,11.0,69,-99.99,,,-99.99,,2013-04-10 11:32:00,
2013-04-10 05:42:00,20.0,11.0,-100.00,WSW,240,8.0,11.0,69,-99.99,,,-99.99,,2013-04-10 11:42:00,
2013-04-10 05:52:00,19.0,12.0,-100.00,West,270,8.0,11.0,72,-99.99,,,0.00,,2013-04-10 11:52:00,
2013-04-10 06:02:00,19.0,12.0,-100.00,West,270,8.0,11.0,72,-99.99,,,0.00,,2013-04-10 12:02:00,
2013-04-10 06:12:00,18.0,12.0,-100.00,WSW,240,6.0,9.0,74,-99.99,,,0.00,,2013-04-10 12:12:00,
2013-04-10 06:22:00,18.0,12.0,-100.00,WSW,240,6.0,9.0,74,-99.99,,,0.00,,2013-04-10 12:22:00,
2013-04-10 06:32:00,18.0,12.0,-100.00,WSW,240,6.0,9.0,74,-99.99,,,0.00,,2013-04-10 12:32:00,
2013-04-10 06:42:00,18.0,12.0,-100.00,WSW,240,6.0,9.0,74,-99.99,,,0.00,,2013-04-10 12:42:00,
2013-04-10 06:52:00,18.0,11.0,-100.00,West,270,6.0,11.0,73,-99.99,,,0.00,,2013-04-10 12:52:00,
2013-04-10 07:02:00,18.0,11.0,-100.00,West,270,6.0,11.0,73,-99.99,,,0.00,,2013-04-10 13:02:00,
2013-04-10 07:12:00,18.0,10.0,-100.00,SSW,195,4.0,7.0,73,-99.99,,,0.00,,2013-04-10 13:12:00,
2013-04-10 07:23:00,18.0,10.0,-100.00,SSW,195,4.0,7.0,73,-99.99,,,0.00,,2013-04-10 13:23:00,
2013-04-10 07:32:00,18.0,10.0,-100.00,SSW,195,4.0,7.0,73,-99.99,,,0.00,,2013-04-10 13:32:00,
2013-04-10 07:42:00,18.0,10.0,-100.00,SSW,195,4.0,7.0,73,-99.99,,,0.00,,2013-04-10 13:42:00,
2013-04-10 07:52:00,19.0,12.0,-100.00,West,270,6.0,9.0,72,-99.99,,,0.00,,2013-04-10 13:52:00,
2013-04-10 08:02:00,19.0,12.0,-100.00,West,270,6.0,9.0,72,-99.99,,,0.00,,2013-04-10 14:02:00,
2013-04-10 08:12:00,20.0,11.0,-100.00,SW,225,4.0,8.0,69,-99.99,,,0.00,,2013-04-10 14:12:00,
2013-04-10 08:22:00,20.0,11.0,-100.00,SW,225,4.0,8.0,69,-99.99,,,0.00,,2013-04-10 14:22:00,
2013-04-10 08:32:00,20.0,11.0,-100.00,SW,225,4.0,8.0,69,-99.99,,,0.00,,2013-04-10 14:32:00,
2013-04-10 08:42:00,20.0,11.0,-100.00,SW,225,4.0,8.0,69,-99.99,,,0.00,,2013-04-10 14:42:00,
2013-04-10 08:52:00,22.0,12.0,-100.00,WSW,245,4.0,6.0,65,-99.99,,,0.00,,2013-04-10 14:52:00,
2013-04-10 09:02:00,22.0,12.0,-100.00,WSW,245,4.0,6.0,65,-99.99,,,0.00,,2013-04-10 15:02:00,
2013-04-10 09:12:00,22.0,12.0,-100.00,WSW,245,4.0,6.0,65,-99.99,,,0.00,,2013-04-10 15:12:00,
2013-04-10 09:32:00,23.0,12.0,-100.00,WSW,245,4.0,7.0,61,-99.99,,,0.00,,2013-04-10 15:32:00,
2013-04-10 09:52:00,26.0,11.0,-100.00,SW,230,3.0,6.0,52,-99.99,,,0.00,,2013-04-10 15:52:00,
2013-04-10 10:02:00,26.0,11.0,-100.00,SW,230,3.0,6.0,52,-99.99,,,0.00,,2013-04-10 16:02:00,
2013-04-10 10:12:00,28.0,11.0,-100.00,West,275,4.0,8.0,48,-99.99,,,0.00,,2013-04-10 16:12:00,
2013-04-10 10:23:00,28.0,11.0,-100.00,West,275,4.0,8.0,48,-99.99,,,0.00,,2013-04-10 16:23:00,
2013-04-10 10:32:00,28.0,11.0,-100.00,West,275,4.0,8.0,48,-99.99,,,0.00,,2013-04-10 16:32:00,
2013-04-10 10:42:00,28.0,11.0,-100.00,West,275,4.0,8.0,48,-99.99,,,0.00,,2013-04-10 16:42:00,
2013-04-10 10:52:00,28.0,10.0,-100.00,NNE,15,2.0,5.0,45,-99.99,,,0.00,,2013-04-10 16:52:00,
2013-04-10 11:02:00,28.0,10.0,-100.00,NNE,15,2.0,5.0,45,-99.99,,,0.00,,2013-04-10 17:02:00,
2013-04-10 11:12:00,31.0,12.0,-100.00,East,100,5.0,7.0,45,-99.99,,,-99.99,,2013-04-10 17:12:00,
2013-04-10 11:22:00,31.0,12.0,-100.00,East,100,5.0,7.0,45,-99.99,,,-99.99,,2013-04-10 17:22:00,
2013-04-10 11:33:00,31.0,12.0,-100.00,East,100,5.0,7.0,45,-99.99,,,-99.99,,2013-04-10 17:33:00,
2013-04-10 11:42:00,31.0,12.0,-100.00,East,100,5.0,7.0,45,-99.99,,,-99.99,,2013-04-10 17:42:00,
2013-04-10 11:52:00,33.0,13.0,-100.00,North,0,4.0,5.0,43,-99.99,,,0.00,,2013-04-10 17:52:00,
2013-04-10 12:02:00,33.0,13.0,-100.00,North,0,4.0,5.0,43,-99.99,,,0.00,,2013-04-10 18:02:00,
2013-04-10 12:12:00,37.0,13.0,-100.00,WSW,255,4.0,10.0,37,-99.99,,,0.00,,2013-04-10 18:12:00,
2013-04-10 12:22:00,37.0,13.0,-100.00,WSW,255,4.0,10.0,37,-99.99,,,0.00,,2013-04-10 18:22:00,
2013-04-10 12:32:00,37.0,13.0,-100.00,WSW,255,4.0,10.0,37,-99.99,,,0.00,,2013-04-10 18:32:00,
2013-04-10 12:42:00,37.0,13.0,-100.00,WSW,255,4.0,10.0,37,-99.99,,,0.00,,2013-04-10 18:42:00,
2013-04-10 12:52:00,39.0,15.0,-100.00,SSW,205,4.0,8.0,36,-99.99,,,0.00,,2013-04-10 18:52:00,
2013-04-10 13:03:00,39.0,15.0,-100.00,SSW,205,4.0,8.0,36,-99.99,,,0.00,,2013-04-10 19:03:00,
2013-04-10 13:12:00,40.0,16.0,-100.00,West,260,4.0,9.0,37,-99.99,,,0.00,,2013-04-10 19:12:00,
2013-04-10 13:22:00,40.0,16.0,-100.00,West,260,4.0,9.0,37,-99.99,,,0.00,,2013-04-10 19:22:00,
2013-04-10 13:32:00,40.0,16.0,-100.00,West,260,4.0,9.0,37,-99.99,,,0.00,,2013-04-10 19:32:00,
2013-04-10 13:42:00,40.0,16.0,-100.00,West,260,4.0,9.0,37,-99.99,,,0.00,,2013-04-10 19:42:00,
2013-04-10 13:52:00,43.0,17.0,-100.00,SW,230,7.0,14.0,34,-99.99,,,0.00,,2013-04-10 19:52:00,
2013-04-10 14:02:00,43.0,17.0,-100.00,SW,230,7.0,14.0,34,-99.99,,,0.00,,2013-04-10 20:02:00,
2013-04-10 14:12:00,43.0,17.0,-100.00,SW,230,7.0,14.0,34,-99.99,,,0.00,,2013-04-10 20:12:00,
2013-04-10 14:23:00,44.0,18.0,-100.00,SW,235,11.0,15.0,34,-99.99,,,0.00,,2013-04-10 20:23:00,
2013-04-10 14:32:00,44.0,18.0,-100.00,SW,235,11.0,15.0,34,-99.99,,,0.00,,2013-04-10 20:32:00,
2013-04-10 14:42:00,45.0,19.0,-100.00,WSW,245,9.0,14.0,34,-99.99,,,0.00,,2013-04-10 20:42:00,
2013-04-10 14:52:00,45.0,19.0,-100.00,WSW,245,9.0,14.0,34,-99.99,,,0.00,,2013-04-10 20:52:00,
2013-04-10 15:02:00,45.0,19.0,-100.00,WSW,245,9.0,14.0,34,-99.99,,,0.00,,2013-04-10 21:02:00,
2013-04-10 15:12:00,45.0,19.0,-100.00,WSW,245,9.0,14.0,34,-99.99,,,0.00,,2013-04-10 21:12:00,
2013-04-10 15:22:00,45.0,19.0,-100.00,SSW,200,8.0,13.0,35,-99.99,,,0.00,,2013-04-10 21:22:00,
2013-04-10 15:32:00,45.0,19.0,-100.00,SSW,200,8.0,13.0,35,-99.99,,,0.00,,2013-04-10 21:32:00,
2013-04-10 15:42:00,47.0,20.0,-100.00,SW,230,7.0,15.0,34,-99.99,,,0.00,,2013-04-10 21:42:00,
2013-04-10 15:53:00,47.0,20.0,-100.00,SW,230,7.0,15.0,34,-99.99,,,0.00,,2013-04-10 21:53:00,
2013-04-10 16:03:00,47.0,20.0,-100.00,SW,230,7.0,15.0,34,-99.99,,,0.00,,2013-04-10 22:03:00,
2013-04-10 16:12:00,47.0,20.0,-100.00,SW,230,7.0,15.0,34,-99.99,,,0.00,,2013-04-10 22:12:00,
2013-04-10 16:22:00,48.0,18.0,-100.00,SW,225,9.0,13.0,30,-99.99,,,0.00,,2013-04-10 22:22:00,
2013-04-10 16:33:00,48.0,18.0,-100.00,SW,225,9.0,13.0,30,-99.99,,,0.00,,2013-04-10 22:33:00,
2013-04-10 16:42:00,48.0,18.0,-100.00,SSW,205,7.0,13.0,29,-99.99,,,0.00,,2013-04-10 22:42:00,
2013-04-10 16:53:00,48.0,18.0,-100.00,SSW,205,7.0,13.0,29,-99.99,,,0.00,,2013-04-10 22:53:00,
2013-04-10 17:02:00,48.0,18.0,-100.00,SSW,205,7.0,13.0,29,-99.99,,,0.00,,2013-04-10 23:02:00,
2013-04-10 17:12:00,48.0,18.0,-100.00,SSW,205,7.0,13.0,29,-99.99,,,0.00,,2013-04-10 23:12:00,
2013-04-10 17:22:00,49.0,18.0,-100.00,WSW,255,4.0,16.0,29,-99.99,,,0.00,,2013-04-10 23:22:00,
2013-04-10 17:32:00,49.0,18.0,-100.00,WSW,255,4.0,16.0,29,-99.99,,,0.00,,2013-04-10 23:32:00,
2013-04-10 17:42:00,49.0,18.0,-100.00,South,170,7.0,12.0,29,-99.99,,,0.00,,2013-04-10 23:42:00,
2013-04-10 17:52:00,49.0,18.0,-100.00,South,170,7.0,12.0,29,-99.99,,,0.00,,2013-04-10 23:52:00,
2013-04-10 18:02:00,49.0,18.0,-100.00,South,170,7.0,12.0,29,-99.99,,,0.00,,2013-04-11 00:02:00,
2013-04-10 18:12:00,49.0,18.0,-100.00,South,170,7.0,12.0,29,-99.99,,,0.00,,2013-04-11 00:12:00,
2013-04-10 18:22:00,49.0,18.0,-100.00,South,175,6.0,11.0,29,-99.99,,,0.00,,2013-04-11 00:22:00,
2013-04-10 18:32:00,49.0,18.0,-100.00,South,175,6.0,11.0,29,-99.99,,,0.00,,2013-04-11 00:32:00,
2013-04-10 18:42:00,49.0,19.0,-100.00,South,190,9.0,12.0,30,-99.99,,,0.00,,2013-04-11 00:42:00,
2013-04-10 18:53:00,49.0,19.0,-100.00,South,190,9.0,12.0,30,-99.99,,,0.00,,2013-04-11 00:53:00,
2013-04-10 19:02:00,49.0,19.0,-100.00,South,190,9.0,12.0,30,-99.99,,,0.00,,2013-04-11 01:02:00,
2013-04-10 19:12:00,49.0,19.0,-100.00,South,190,9.0,12.0,30,-99.99,,,0.00,,2013-04-11 01:12:00,
2013-04-10 19:22:00,48.0,18.0,-100.00,SSE,165,7.0,13.0,30,-99.99,,,0.00,,2013-04-11 01:22:00,
2013-04-10 19:32:00,48.0,18.0,-100.00,SSE,165,7.0,13.0,30,-99.99,,,0.00,,2013-04-11 01:32:00,
2013-04-10 19:42:00,47.0,18.0,-100.00,SSE,160,7.0,9.0,31,-99.99,,,0.00,,2013-04-11 01:42:00,
2013-04-10 19:52:00,47.0,18.0,-100.00,SSE,160,7.0,9.0,31,-99.99,,,0.00,,2013-04-11 01:52:00,
2013-04-10 20:02:00,47.0,18.0,-100.00,SSE,160,7.0,9.0,31,-99.99,,,0.00,,2013-04-11 02:02:00,
2013-04-10 20:12:00,47.0,18.0,-100.00,SSE,160,7.0,9.0,31,-99.99,,,0.00,,2013-04-11 02:12:00,
2013-04-10 20:22:00,45.0,18.0,-100.00,South,170,11.0,13.0,34,-99.99,,,0.00,,2013-04-11 02:22:00,
2013-04-10 20:32:00,45.0,18.0,-100.00,South,170,11.0,13.0,34,-99.99,,,0.00,,2013-04-11 02:32:00,
2013-04-10 20:42:00,45.0,18.0,-100.00,South,170,11.0,13.0,34,-99.99,,,0.00,,2013-04-11 02:42:00,
2013-04-10 20:52:00,43.0,19.0,-100.00,SSE,165,12.0,20.0,38,-99.99,,,0.00,,2013-04-11 02:52:00,
2013-04-10 21:02:00,43.0,19.0,-100.00,SSE,165,12.0,20.0,38,-99.99,,,0.00,,2013-04-11 03:02:00,
2013-04-10 21:12:00,43.0,19.0,-100.00,SSE,165,12.0,20.0,38,-99.99,,,0.00,,2013-04-11 03:12:00,
2013-04-10 21:22:00,42.0,20.0,-100.00,SSE,160,11.0,19.0,41,-99.99,,,-99.99,,2013-04-11 03:22:00,
2013-04-10 21:33:00,42.0,20.0,-100.00,SSE,160,11.0,19.0,41,-99.99,,,-99.99,,2013-04-11 03:33:00,
2013-04-10 21:43:00,41.0,20.0,-100.00,South,175,9.0,17.0,42,-99.99,,,0.00,,2013-04-11 03:43:00,
2013-04-10 21:53:00,41.0,20.0,-100.00,South,175,9.0,17.0,42,-99.99,,,0.00,,2013-04-11 03:53:00,
2013-04-10 22:03:00,41.0,20.0,-100.00,South,175,9.0,17.0,42,-99.99,,,0.00,,2013-04-11 04:03:00,
2013-04-10 22:12:00,41.0,20.0,-100.00,South,175,9.0,17.0,42,-99.99,,,0.00,,2013-04-11 04:12:00,
2013-04-10 22:22:00,41.0,20.0,-100.00,SSW,195,5.0,8.0,44,-99.99,,,0.00,,2013-04-11 04:22:00,
2013-04-10 22:33:00,41.0,20.0,-100.00,SSW,195,5.0,8.0,44,-99.99,,,0.00,,2013-04-11 04:33:00,
2013-04-10 22:42:00,40.0,22.0,-100.00,WSW,240,4.0,8.0,48,-99.99,,,0.00,,2013-04-11 04:42:00,
2013-04-10 22:53:00,40.0,22.0,-100.00,WSW,240,4.0,8.0,48,-99.99,,,0.00,,2013-04-11 04:53:00,
2013-04-10 23:02:00,40.0,22.0,-100.00,WSW,240,4.0,8.0,48,-99.99,,,0.00,,2013-04-11 05:02:00,
2013-04-10 23:12:00,40.0,22.0,-100.00,WSW,240,4.0,8.0,48,-99.99,,,0.00,,2013-04-11 05:12:00,
2013-04-10 23:22:00,39.0,23.0,-100.00,NE,55,2.0,4.0,51,-99.99,,,0.00,,2013-04-11 05:22:00,
2013-04-10 23:32:00,39.0,23.0,-100.00,NE,55,2.0,4.0,51,-99.99,,,0.00,,2013-04-11 05:32:00,
2013-04-10 23:42:00,40.0,24.0,-100.00,SW,230,8.0,9.0,52,-99.99,,,0.00,,2013-04-11 05:42:00,
2013-04-10 23:52:00,40.0,24.0,-100.00,SW,230,8.0,9.0,52,-99.99,,,0.00,,2013-04-11 05:52:00,